Temp
11 11 11 11 11 12 12 12 12 12 12 12 12 12 12 12 13 13 13 13 13 13 13 13 13 13 12 11 11 12 13 14 16 17 18 18 17 17 17 17 17 16 14 14 13
11 11 11 11 11 11 12 12 12 12 12 12 12 12 12 13 13 13 13 13 13 13 13 13 12 12 11 11 12 13 13 15 16 18 17 18 17 17 17 16 16 16 14 13 13
10 11 11 11 11 12 12 12 12 12 12 12 12 12 12 12 12 13 13 13 13 13 13 12 10 10 11 12 13 13 13 15 16 16 16 16 16 16 17 17 17 17 15 13 15
11 11 11 11 11 12 12 12 12 12 12 12 12 12 12 12 11 12 12 13 13 13 13 12 10 11 11 12 13 14 14 15 15 15 15 15 15 16 16 16 17 14 15 13 12
11 11 11 11 11 11 12 12 12 12 12 12 12 12 12 12 12 12 12 13 13 13 13 10 10 11 12 13 14 14 14 14 15 15 15 14 15 15 15 16 16 15 12 11 13
10 11 11 11 11 11 12 12 12 12 12 12 12 12 12 12 13 12 12 12 13 13 13 10 11 12 13 13 14 15 14 14 14 15 14 14 15 15 15 15 16 15 14 14 13
10 11 11 11 12 12 12 12 12 12 12 12 12 12 12 11 11 13 13 13 12 12 10 10 11 11 12 13 13 14 14 14 14 14 14 14 15 15 15 16 15 15 14 15 14
10 11 11 11 11 12 12 12 12 12 12 12 12 12 12 12 12 12 13 13 12 11 10 10 10 10 11 12 13 13 14 14 15 15 15 14 15 15 15 15 15 15 15 14 14
10 11 11 11 11 11 11 11 12 12 12 12 12 12 11 13 12 12 11 11 10 9 9 9 9 10 11 12 12 13 14 15 15 16 16 15 15 15 15 15 15 15 15 15 14
10 10 11 11 11 11 11 11 11 11 11 11 11 11 11 11 11 12 10 9 9 9 9 9 9 10 11 12 13 15 15 16 16 16 16 15 15 15 15 16 15 15 14 14 14
10 10 10 11 11 11 11 10 10 10 11 11 9 10 10 9 10 11 10 9 9 9 9 10 10 11 12 13 13 14 14 15 15 16 16 16 15 15 15 15 15 14 14 14 14
9 9 10 10 10 10 10 10 10 10 11 11 10 10 10 10 9 9 9 9 9 9 10 10 11 11 12 13 13 14 14 14 14 14 15 15 15 15 15 15 14 14 13 13 13
9 9 9 9 10 9 9 9 10 10 10 10 10 10 10 10 10 10 10 9 9 10 10 11 12 12 13 13 13 13 13 13 13 14 14 15 14 14 15 14 13 13 12 11 11
8 9 9 9 9 9 7 9 9 10 9 11 10 10 10 10 10 10 10 9 10 10 11 12 12 12 13 13 12 12 13 13 13 13 14 14 15 14 14 13 12 12 11 10 10
8 8 8 9 9 8 8 9 9 9 12 11 10 10 10 10 11 10 10 10 10 11 11 11 12 13 13 13 13 13 12 13 13 13 13 13 14 15 15 13 12 11 10 9 8
8 8 8 8 8 8 8 9 9 8 12 12 11 10 10 10 11 10 10 10 10 10 11 11 11 12 12 13 12 12 12 12 12 12 14 13 13 14 15 15 12 11 10 9 8
8 8 8 8 8 8 8 8 8 10 12 13 11 10 11 11 11 10 10 10 10 10 10 11 11 12 12 12 12 12 12 12 12 13 14 13 14 14 13 14 13 11 10 8 8
7 8 8 8 8 8 8 6 8 12 13 11 10 10 10 10 11 10 10 10 11 11 10 11 11 12 11 11 10 10 10 9 6 9 13 14 14 11 11 13 13 10 8 8 7
7 7 8 8 7 7 7 7 10 10 10 9 9 9 10 10 10 10 10 10 11 9 9 9 10 9 9 8 8 9 9 9 7 6 8 10 12 10 10 10 9 8 8 7 7
7 7 6 7 7 7 6 7 9 9 8 7 8 9 10 11 11 10 10 10 10 9 8 8 8 9 9 7 8 8 7 7 8 3 3 8 9 5 6 8 9 6 6 6 5
6 6 5 6 6 6 5 8 9 8 6 6 7 8 8 9 9 9 9 9 8 8 7 7 6 7 8 8 8 7 7 6 4 5 5 4 6 3 3 4 5 5 5 4 4
6 6 5 6 6 6 7 7 7 6 6 5 5 6 6 7 7 8 8 8 7 6 6 7 5 6 7 7 7 6 5 4 3 4 1 0 1 2 2 2 2 1 0 1 2
5 5 4 5 5 6 6 6 5 5 5 5 5 5 6 6 6 6 7 7 5 5 5 5 5 5 6 7 5 4 4 4 3 1 1 1 2 2 2 2 0 1 -0 -0 -1
4 3 4 4 3 3 3 4 4 4 5 4 4 4 4 5 5 5 6 6 5 4 4 4 4 4 5 6 5 4 4 4 3 2 2 2 3 2 2 1 0 -0 -0 -0 0
2 1 2 3 4 3 2 1 2 2 3 4 3 3 4 4 4 5 5 5 4 3 3 3 3 4 4 5 5 5 5 5 4 4 3 4 3 3 3 2 2 1 -0 1 1
1 1 1 3 2 0 1 1 2 2 2 3 3 3 3 3 4 4 5 5 5 4 2 2 2 2 3 4 5 4 5 5 5 5 5 5 4 4 3 2 2 2 1 1 1
0 0 -0 -0 -0 -1 1 1 1 0 1 1 1 1 2 3 2 2 2 2 3 3 3 2 2 2 2 3 4 4 4 4 4 5 5 5 4 4 3 2 2 1 1 0 -0
Height
3165 3165 3164 3163 3163 3163 3164 3164 3163 3163 3163 3163 3162 3162 3162 3162 3162 3163 3163 3165 3165 3166 3168 3170 3172 3175 3178 3180 3185 3189 3191 3188 3187 3185 3183 3180 3179 3184 3185 3184 3185 3185 3179 3185 3187
3165 3164 3164 3163 3163 3163 3163 3163 3163 3163 3163 3163 3163 3163 3162 3162 3162 3163 3164 3163 3165 3166 3168 3170 3172 3175 3177 3181 3184 3187 3187 3186 3184 3184 3180 3180 3179 3183 3184 3184 3185 3187 3175 3179 3186
3166 3165 3164 3163 3163 3162 3162 3162 3162 3162 3163 3163 3163 3163 3163 3163 3163 3163 3162 3163 3165 3166 3168 3169 3173 3177 3179 3182 3184 3185 3183 3183 3182 3181 3180 3178 3178 3183 3183 3184 3184 3182 3176 3177 3180
3166 3165 3164 3163 3162 3162 3161 3161 3162 3162 3162 3162 3162 3163 3163 3163 3167 3163 3163 3164 3165 3166 3167 3168 3173 3178 3179 3181 3183 3183 3182 3182 3180 3181 3180 3179 3180 3181 3182 3181 3181 3177 3175 3178 3182
3165 3164 3163 3162 3162 3161 3161 3161 3161 3161 3161 3162 3162 3162 3163 3163 3163 3163 3163 3164 3165 3166 3167 3169 3174 3177 3179 3180 3181 3180 3180 3180 3179 3178 3178 3178 3177 3179 3179 3179 3180 3176 3162 3162 3181
3165 3163 3162 3162 3161 3161 3161 3160 3160 3161 3161 3161 3161 3162 3162 3164 3160 3162 3163 3164 3165 3166 3166 3171 3176 3178 3178 3178 3178 3178 3177 3176 3176 3175 3175 3175 3174 3176 3177 3176 3177 3175 3179 3179 3180
3164 3163 3162 3161 3160 3160 3160 3160 3160 3160 3160 3161 3161 3161 3162 3163 3161 3161 3162 3163 3163 3165 3168 3172 3175 3176 3176 3176 3175 3175 3174 3173 3172 3171 3171 3172 3170 3170 3173 3175 3173 3172 3173 3177 3176
3164 3162 3161 3160 3159 3159 3159 3159 3159 3160 3160 3160 3160 3160 3161 3159 3160 3159 3160 3161 3162 3163 3167 3172 3172 3170 3171 3173 3172 3172 3171 3168 3167 3167 3167 3170 3164 3167 3169 3171 3171 3172 3174 3176 3177
3163 3162 3160 3159 3158 3158 3158 3158 3158 3158 3158 3158 3159 3159 3158 3158 3158 3158 3158 3159 3161 3163 3165 3166 3166 3167 3169 3170 3169 3168 3166 3164 3162 3162 3161 3163 3162 3164 3166 3166 3168 3169 3173 3175 3177
3162 3161 3160 3158 3157 3157 3156 3156 3156 3156 3156 3156 3157 3160 3157 3158 3155 3155 3157 3158 3161 3161 3163 3163 3163 3164 3166 3167 3164 3162 3159 3158 3156 3158 3156 3158 3158 3160 3161 3161 3162 3166 3168 3172 3176
3161 3159 3158 3157 3157 3156 3156 3156 3157 3156 3153 3154 3156 3155 3157 3156 3153 3154 3154 3156 3160 3160 3160 3162 3163 3161 3163 3163 3162 3161 3158 3156 3155 3154 3154 3153 3154 3155 3157 3156 3157 3159 3164 3169 3170
3160 3159 3157 3156 3155 3155 3154 3153 3154 3154 3151 3150 3151 3153 3154 3156 3153 3152 3154 3155 3156 3156 3159 3161 3157 3159 3159 3159 3158 3157 3156 3155 3155 3153 3152 3150 3149 3152 3152 3152 3153 3157 3159 3162 3160
3161 3158 3156 3155 3154 3154 3153 3153 3152 3150 3149 3149 3150 3151 3151 3149 3150 3153 3151 3151 3153 3155 3156 3155 3155 3155 3154 3155 3155 3153 3153 3153 3152 3150 3148 3147 3144 3147 3147 3144 3148 3149 3152 3154 3156
3160 3158 3156 3154 3155 3152 3154 3151 3150 3149 3147 3148 3147 3148 3147 3147 3148 3148 3149 3151 3152 3152 3153 3151 3151 3151 3150 3150 3152 3149 3150 3148 3148 3147 3142 3142 3135 3139 3141 3139 3141 3143 3146 3150 3148
3160 3157 3155 3153 3152 3151 3153 3151 3149 3149 3145 3146 3146 3143 3146 3148 3148 3146 3147 3148 3147 3149 3151 3147 3147 3147 3145 3146 3147 3144 3146 3144 3142 3139 3139 3135 3133 3129 3133 3131 3134 3138 3141 3143 3143
3158 3155 3154 3153 3150 3149 3149 3148 3149 3152 3145 3144 3144 3144 3145 3145 3146 3146 3144 3145 3146 3145 3144 3143 3144 3143 3142 3141 3141 3141 3141 3139 3139 3137 3131 3128 3131 3125 3125 3124 3125 3132 3138 3139 3141
3155 3153 3151 3149 3149 3147 3147 3148 3152 3146 3142 3142 3142 3143 3143 3143 3143 3144 3144 3142 3142 3142 3140 3138 3137 3137 3138 3137 3138 3138 3137 3132 3131 3126 3118 3122 3122 3119 3118 3114 3109 3127 3130 3137 3138
3152 3150 3148 3146 3145 3145 3146 3149 3149 3140 3139 3138 3140 3140 3140 3140 3139 3140 3140 3138 3137 3136 3135 3134 3132 3135 3132 3134 3134 3134 3135 3136 3139 3125 3114 3115 3111 3113 3115 3111 3104 3114 3122 3132 3136
3149 3147 3145 3143 3143 3143 3145 3145 3142 3140 3137 3137 3138 3137 3135 3134 3135 3136 3135 3135 3133 3130 3133 3133 3130 3132 3131 3131 3132 3132 3131 3132 3129 3132 3123 3115 3113 3116 3118 3118 3115 3119 3115 3123 3127
3146 3144 3143 3142 3141 3141 3141 3140 3137 3136 3134 3135 3136 3136 3133 3131 3131 3131 3132 3131 3129 3127 3129 3131 3127 3131 3131 3130 3131 3130 3130 3128 3126 3128 3125 3114 3114 3117 3117 3116 3109 3113 3119 3118 3120
3144 3141 3139 3140 3138 3138 3137 3137 3137 3133 3131 3133 3133 3132 3131 3131 3129 3128 3128 3128 3124 3126 3125 3128 3129 3126 3128 3127 3126 3127 3123 3127 3127 3128 3123 3120 3118 3119 3112 3116 3100 3111 3116 3117 3116
3142 3141 3137 3135 3136 3135 3135 3133 3131 3131 3131 3129 3128 3128 3127 3127 3126 3125 3125 3126 3120 3121 3123 3125 3123 3122 3123 3122 3123 3121 3122 3124 3124 3121 3122 3120 3117 3116 3115 3115 3110 3108 3108 3112 3113
3136 3134 3133 3132 3134 3131 3130 3130 3128 3128 3127 3126 3125 3125 3124 3123 3123 3122 3122 3122 3117 3118 3118 3121 3120 3119 3117 3119 3116 3119 3120 3121 3121 3120 3118 3122 3111 3118 3116 3112 3103 3107 3107 3115 3114
3135 3134 3135 3130 3130 3127 3125 3122 3122 3124 3123 3121 3119 3120 3119 3118 3118 3116 3118 3118 3114 3114 3115 3117 3119 3119 3118 3116 3115 3116 3116 3117 3116 3117 3117 3113 3111 3112 3112 3112 3110 3110 3106 3108 3108
3132 3133 3127 3126 3126 3121 3120 3118 3116 3116 3117 3117 3114 3114 3114 3113 3112 3111 3112 3113 3110 3106 3110 3111 3113 3114 3113 3113 3111 3110 3111 3111 3110 3110 3109 3110 3107 3108 3106 3104 3104 3106 3108 3111 3109
3127 3124 3121 3119 3117 3115 3115 3114 3112 3111 3111 3111 3109 3109 3110 3108 3109 3106 3107 3106 3106 3103 3103 3105 3107 3109 3108 3108 3106 3105 3105 3105 3103 3103 3102 3102 3100 3103 3101 3099 3100 3102 3110 3108 3103
3117 3117 3113 3110 3111 3111 3111 3109 3107 3105 3103 3103 3103 3102 3103 3103 3096 3096 3096 3096 3098 3099 3099 3101 3102 3104 3103 3104 3101 3099 3099 3098 3098 3097 3097 3096 3097 3095 3096 3098 3099 3100 3101 3103 3100
Wind_Speed
4 3 2 2 2 2 2 1 1 2 4 5 5 5 3 1 4 4 2 3 4 5 8 11 12 12 11 12 13 11 18 21 19 18 16 10 7 7 10 11 6 6 5 3 6
6 4 3 2 2 2 2 2 2 1 1 1 3 5 5 4 0 2 4 3 3 3 7 8 8 9 10 10 13 16 18 18 18 19 14 8 3 9 6 10 12 9 6 3 7
8 6 4 3 2 2 2 2 2 2 2 2 1 2 4 6 4 3 3 1 3 4 7 8 6 8 11 12 12 17 21 19 21 14 16 11 4 9 12 12 13 19 22 17 11
7 7 6 4 3 2 2 3 3 3 3 2 2 1 1 5 6 3 3 1 2 5 7 10 9 11 11 12 13 20 20 20 21 18 16 18 13 15 13 15 12 14 22 15 11
7 6 6 5 4 3 2 3 4 5 5 4 4 3 2 4 8 2 2 2 3 4 6 8 9 10 12 10 14 18 19 20 18 22 18 16 18 17 17 14 13 8 20 22 11
8 6 4 4 4 4 3 3 4 5 5 6 6 6 6 3 13 8 6 5 5 4 7 9 6 7 13 16 16 15 14 20 19 21 20 21 20 19 18 16 16 16 5 6 6
10 8 6 4 3 3 4 4 3 3 5 6 7 7 7 8 13 6 9 8 6 6 6 9 10 13 9 12 14 17 21 20 20 21 20 19 24 24 19 18 20 13 14 11 14
9 8 6 5 4 4 3 4 4 4 4 5 6 7 8 10 10 15 11 10 9 6 11 10 13 13 14 14 16 15 19 23 20 22 21 20 28 20 19 20 20 19 13 12 11
11 9 7 5 4 3 4 4 5 6 7 7 8 8 7 9 12 14 12 10 8 11 11 14 13 13 12 15 17 18 23 22 22 19 25 20 26 20 18 23 21 19 18 14 14
12 9 7 6 5 3 3 3 5 6 7 7 7 7 8 5 14 11 12 12 13 12 14 14 12 15 15 17 24 18 23 22 21 17 17 22 24 21 21 21 26 23 18 17 15
12 11 7 6 5 4 3 3 3 8 9 9 7 11 4 8 16 10 12 12 13 14 17 15 15 18 17 19 21 22 25 25 24 14 18 19 20 24 21 20 20 19 19 20 19
13 11 9 6 3 3 4 5 4 9 13 10 15 17 17 12 10 8 13 16 17 19 14 16 25 17 18 20 23 23 23 24 24 24 24 22 23 22 23 21 22 21 19 20 22
13 12 10 7 4 2 2 5 6 10 11 6 8 9 7 12 16 11 15 15 16 19 18 23 20 19 24 18 20 23 24 24 26 24 26 25 31 26 26 22 20 20 19 21 23
13 10 8 7 4 2 8 5 7 7 5 9 8 8 6 4 9 13 18 13 18 22 19 21 20 23 24 22 19 25 23 25 25 26 27 24 26 28 29 25 23 24 21 19 22
15 12 8 5 3 1 4 4 4 2 5 9 8 13 8 9 4 10 14 18 18 19 19 25 21 23 26 26 24 29 22 24 26 27 26 31 28 27 25 35 28 24 22 21 20
17 13 10 6 6 2 2 1 1 1 6 6 5 2 7 8 8 8 7 14 17 20 22 27 25 26 27 22 25 24 25 25 26 30 27 32 31 35 36 36 34 28 26 24 21
19 15 11 8 5 5 3 2 5 8 2 6 4 5 7 9 11 13 12 12 15 18 21 21 23 23 27 29 27 25 26 22 22 21 18 31 33 37 26 31 42 32 33 23 21
20 16 12 9 7 5 4 1 9 7 3 5 5 10 13 12 13 13 15 16 17 23 21 21 24 17 13 23 25 25 21 12 9 16 17 31 31 10 10 6 45 41 36 25 19
20 17 13 7 6 7 6 9 12 9 4 5 9 14 15 13 16 12 16 15 16 6 12 14 21 7 12 12 8 14 22 29 15 30 27 35 29 9 18 16 17 25 30 27 23
21 17 5 8 9 8 8 14 16 13 12 9 12 10 14 12 12 13 12 12 15 14 10 13 24 16 17 11 14 16 14 14 12 3 6 18 16 10 19 24 34 32 17 19 17
23 13 17 14 12 11 12 11 8 7 12 6 11 15 16 16 16 19 18 18 13 12 9 12 16 25 20 23 22 21 14 12 12 10 4 7 4 13 13 13 7 21 19 22 14
23 13 16 13 9 7 10 14 15 14 12 15 12 14 17 17 20 20 19 17 15 8 9 10 10 17 18 18 17 12 13 11 8 7 5 1 6 14 15 13 13 16 26 11 12
30 19 13 12 6 8 8 11 13 16 15 14 15 13 13 18 20 17 17 17 12 6 10 9 13 16 19 20 9 7 10 11 13 18 15 6 14 18 22 24 13 21 7 5 7
29 11 8 14 8 11 14 18 17 13 18 19 19 19 20 20 19 20 19 15 19 14 18 18 17 18 21 22 9 10 12 11 16 14 13 20 24 21 20 21 17 17 14 10 7
21 8 21 18 14 21 23 21 23 22 18 19 19 16 18 22 21 22 21 22 19 17 18 21 16 16 19 20 20 22 18 19 21 22 23 24 25 22 21 16 10 13 13 10 13
18 21 19 25 23 17 16 19 19 19 18 19 21 19 20 24 21 24 21 23 25 21 18 15 16 14 20 19 19 21 22 24 26 27 31 29 28 23 23 21 21 17 16 15 13
25 23 24 24 19 18 16 21 21 18 17 16 16 22 21 18 23 20 18 17 14 17 19 16 18 16 21 19 22 21 21 21 22 25 22 24 22 17 11 14 15 13 14 16 15
Wind_Direction
6 9 355 331 312 286 274 286 30 53 55 57 56 50 52 187 214 208 202 202 190 198 206 207 209 206 210 219 230 237 258 255 258 258 274 260 248 270 251 258 272 294 280 210 102
2 357 352 335 299 282 272 257 254 267 30 41 58 61 50 38 268 186 211 175 159 177 193 188 191 200 218 239 229 232 243 249 249 280 316 261 238 240 262 267 247 208 267 176 207
2 356 345 338 320 283 263 254 238 242 243 254 296 48 54 53 57 65 78 108 201 186 179 156 182 225 237 236 238 235 244 248 257 299 277 305 252 265 265 268 248 241 230 198 219
352 356 351 331 326 313 259 237 226 218 227 230 237 198 112 105 72 330 11 82 167 184 194 166 207 227 237 242 243 243 249 260 266 274 283 268 266 272 267 250 296 242 187 159 169
352 347 349 342 317 310 285 248 230 224 225 231 235 227 195 161 279 216 253 210 173 173 187 172 215 222 239 253 249 252 252 255 268 265 262 265 259 257 259 255 263 286 274 174 162
357 348 338 335 329 306 296 287 260 235 235 240 242 238 227 181 260 265 261 227 198 179 162 179 201 244 252 260 257 252 263 265 255 265 258 261 261 254 255 253 246 252 241 238 209
359 350 342 321 304 306 295 292 291 262 251 255 260 258 253 213 257 269 265 242 229 211 181 209 224 248 252 273 264 259 259 268 256 256 257 255 257 251 251 244 237 248 261 232 239
3 3 348 328 302 271 269 273 274 270 266 265 265 267 257 267 268 276 267 257 251 207 197 233 250 248 240 262 261 267 258 265 263 258 254 244 255 251 253 238 240 242 236 224 233
350 353 352 343 295 291 277 268 267 258 252 253 255 259 268 273 273 263 259 254 241 228 229 231 235 245 257 257 264 257 258 261 269 256 249 234 254 252 249 236 234 228 227 229 228
340 334 333 335 332 290 264 253 254 255 252 247 261 265 266 285 273 242 235 217 227 237 234 246 256 254 252 242 248 260 256 258 255 272 225 239 254 251 254 244 227 226 221 225 229
356 350 332 313 316 316 298 259 274 297 237 221 265 194 297 245 252 247 235 217 216 235 234 240 247 245 252 252 260 265 272 282 275 278 251 251 251 252 256 255 205 211 230 229 244
357 359 353 340 308 291 286 272 252 261 272 262 246 252 246 236 260 246 214 220 215 230 243 243 243 254 259 260 263 266 272 271 270 271 272 262 256 254 246 239 220 228 228 224 233
353 354 355 346 345 317 322 297 282 275 281 267 226 234 256 231 238 227 244 224 223 235 237 246 256 259 259 262 262 266 264 269 270 274 264 260 260 250 252 215 209 207 216 212 224
342 346 354 344 323 46 307 308 296 303 288 217 226 204 230 203 248 220 234 229 237 240 249 258 263 256 257 256 259 270 272 262 268 267 268 261 250 250 247 212 211 210 206 191 196
335 334 335 345 295 45 239 256 265 278 274 174 180 231 203 202 257 280 211 235 241 245 252 260 266 262 256 260 266 272 268 271 267 271 256 258 268 256 251 214 210 203 204 202 200
330 324 322 331 302 335 259 189 130 297 239 200 209 197 224 257 248 237 269 232 247 252 256 262 264 265 265 273 265 266 265 262 269 262 266 252 251 262 255 233 208 202 196 188 183
332 327 316 303 300 308 296 163 292 239 194 214 224 234 244 244 255 256 256 250 246 248 254 265 266 266 261 264 266 260 270 259 254 246 247 253 252 254 274 280 199 197 192 190 187
333 328 321 301 291 289 259 336 247 280 253 242 263 271 267 265 256 258 260 267 252 253 256 273 286 302 289 259 269 271 285 316 296 288 276 260 260 248 289 333 201 201 191 187 183
333 329 320 320 300 278 245 240 241 294 265 268 284 279 275 267 237 262 257 266 264 256 239 270 272 308 275 294 274 287 269 276 305 275 293 281 277 254 247 213 174 199 177 175 182
342 337 291 322 301 270 251 255 269 275 264 281 278 276 281 273 249 246 263 274 265 243 242 264 287 275 290 281 280 266 283 309 286 0 247 254 299 337 307 243 212 197 187 183 181
343 357 290 306 302 280 253 258 282 292 279 278 273 270 272 272 270 271 273 266 269 243 252 261 274 274 274 268 290 281 275 290 276 273 303 333 31 342 326 254 192 185 198 186 178
348 344 270 304 305 282 263 257 261 265 287 286 277 276 270 273 273 268 267 264 252 218 250 255 271 277 272 275 281 278 264 274 258 270 239 170 287 325 336 296 218 186 165 162 170
347 0 332 348 317 266 242 270 280 279 280 271 268 271 272 271 276 265 263 258 252 240 256 251 254 277 278 271 240 271 278 255 251 264 260 271 255 262 301 313 249 223 196 221 225
341 348 284 310 318 296 296 276 290 286 278 266 274 267 268 267 260 264 260 255 264 257 256 243 257 257 265 275 241 255 234 245 230 231 262 243 278 283 314 265 295 309 300 316 291
336 289 303 297 264 266 278 285 286 286 274 270 275 266 265 267 264 261 258 254 256 243 246 249 245 255 261 263 264 267 268 262 249 251 250 272 275 286 298 300 289 294 300 269 273
316 307 284 295 294 298 292 288 285 285 277 269 265 263 272 263 264 266 263 261 252 248 233 224 246 257 265 263 266 267 267 265 263 267 269 273 272 279 276 275 282 263 258 272 271
301 300 299 295 291 292 290 286 283 277 275 269 276 274 263 262 258 250 251 256 247 240 232 225 234 241 259 268 275 268 266 268 270 262 267 269 279 272 264 232 228 229 234 259 278